Hourly Data Report for September 11, 2017

All times are specified in Local Standard Time (LST). Add 1 hour to adjust for Daylight Saving Time where and when it is observed.

SANDY LAKE A
ONTARIO

53°03'51.000" N
93°20'40.000" W
289.90 m
6017401
71587
ZSJ

Related Data

No related data is available for this station

Download Data

Hourly Data (September 2017)
Hourly Data Report for September 11, 2017
Temp Definition
°C
Dew Point Temp Definition
°C
Rel Hum Definition
%
Wind Dir Definition
10's deg

Wind Spd Definition
km/h
Visibility Definition
km
Stn Press Definition
kPa
Hmdx Definition


Wind Chill Definition


Weather Definition


TIME
00:00 Legend Double Dagger 22.4 15.4 64 26 11 16.1 97.02 27   LegendNANA
01:00 Legend Double Dagger 20.1 13.0 63 29 18 16.1 97.16     LegendNANA
02:00 Legend Double Dagger 17.9 8.6 54 27 24 16.1 97.24     LegendNANA
03:00 Legend Double Dagger 15.9 8.2 60 27 13 16.1 97.28     LegendNANA
04:00 Legend Double Dagger 14.6 8.6 67 24 9 16.1 97.31     LegendNANA
05:00 Legend Double Dagger 14.7 8.8 67 24 8 16.1 97.30     LegendNANA
06:00 Legend Double Dagger 14.4 9.7 73 26 15 16.1 97.34     LegendNANA
07:00 Legend Double Dagger 15.1 10.0 71 25 13 16.1 97.36     LegendNANA
08:00 Legend Double Dagger 16.3 9.7 65 27 22 16.1 97.36     LegendNANA
09:00 Legend Double Dagger 17.5 9.1 58 27 18 16.1 97.39     LegendNANA
10:00 Legend Double Dagger 18.8 8.6 51 28 21 16.1 97.41     LegendNANA
11:00 Legend Double Dagger 19.6 7.1 44 27 24 16.1 97.38     LegendNANA
12:00 Legend Double Dagger 20.4 6.2 39 28 32 16.1 97.35     LegendNANA
13:00 Legend Double Dagger 20.9 3.2 31 26 37 16.1 97.34     LegendNANA
14:00 Legend Double Dagger 21.9 4.0 31 27 18 16.1 97.32     LegendNANA
15:00 Legend Double Dagger 21.5 3.4 30 27 39 16.1 97.32     LegendNANA
16:00 Legend Double Dagger 21.4 3.7 31 26 22 16.1 97.33     LegendNANA
17:00 Legend Double Dagger 20.6 3.5 32 26 21 16.1 97.34     LegendNANA
18:00 Legend Double Dagger 19.4 3.6 35 27 21 16.1 97.39     LegendNANA
19:00 Legend Double Dagger 18.1 3.5 38 27 18 16.1 97.40     LegendNANA
20:00 Legend Double Dagger LegendMM LegendMM 43 25 13 16.1 LegendMM     LegendNANA
21:00 Legend Double Dagger 15.9 5.0 48 26 11 16.1 97.39     LegendNANA
22:00 Legend Double Dagger 16.1 5.8 50 26 17 LegendMM 97.34     LegendNANA
23:00 Legend Double Dagger 15.8 6.1 52 26 17 16.1 97.36     LegendNANA

Notes on Data Quality.

Legend

  • E = Estimated
  • M = Missing
  • NA = Not Available
  • ‡ = Partner data that is not subject to review by the National Climate Archives
Date modified: